Vorticity
14 6 1 6 13 16 12 13 10 9 6 4 5 5 8 5 5 5 5 4 6 7 6 7 8 7 9 9 7 10 3 7 4 6 6 7 6 5 6 3 4 5 5
7 19 5 5 4 13 13 11 14 10 7 7 8 8 6 7 6 5 5 5 5 5 4 7 6 7 8 8 7 10 8 7 5 9 7 5 5 5 4 5 5 6 6
10 14 9 21 4 7 12 11 9 12 12 8 9 8 6 6 7 7 4 4 5 5 4 4 6 5 7 7 7 6 6 7 8 11 6 5 6 7 5 5 6 4 5
8 8 13 8 4 5 0 8 11 7 11 13 7 8 9 10 11 11 7 6 5 4 4 4 5 6 5 3 6 9 7 5 7 8 9 10 8 6 6 7 7 4 3
13 11 12 13 12 8 11 8 7 11 8 8 9 9 8 6 9 12 11 8 8 7 4 4 3 4 5 4 5 5 5 5 8 6 5 7 8 8 7 8 7 6 8
12 7 11 14 11 20 28 11 3 10 6 8 12 11 10 10 9 10 7 5 5 6 5 6 6 6 5 7 2 7 10 7 8 8 6 6 4 10 5 6 7 6 7
13 14 12 12 13 10 24 17 1 6 5 7 4 2 6 8 8 8 9 13 6 7 9 7 7 5 5 4 7 5 5 5 4 5 7 7 7 7 7 5 6 6 5
10 13 13 11 11 13 14 11 9 5 8 11 8 10 16 12 10 6 7 10 11 12 9 8 9 8 5 4 5 7 6 4 5 3 3 5 7 7 8 8 9 9 7
3 8 9 11 13 11 12 15 15 14 23 18 11 14 15 9 12 11 9 8 7 11 12 11 10 10 6 6 10 7 9 8 6 6 5 4 5 7 8 8 7 5 5
-1 1 7 8 8 11 12 10 10 11 15 16 18 17 12 16 15 12 14 3 2 6 3 10 8 7 6 9 9 8 9 8 10 9 10 9 10 7 6 6 6 8 9
9 0 -0 6 6 7 7 9 10 9 8 8 10 12 11 14 15 13 24 11 38 31 18 6 8 10 8 7 6 -3 -3 7 8 7 5 9 7 12 9 8 10 6 8
4 11 6 -0 3 4 3 5 6 6 6 6 6 6 7 6 6 8 8 12 27 38 24 12 5 8 4 9 11 13 12 10 9 11 14 3 4 5 3 12 20 17 3
9 11 8 13 -1 2 5 5 6 3 3 6 7 8 6 5 6 6 6 9 9 9 9 11 13 13 11 11 4 7 12 14 21 19 20 16 9 7 6 11 16 15 10
8 12 7 9 11 10 8 7 4 8 7 4 4 7 8 8 7 7 10 9 9 10 11 10 8 10 12 12 10 8 10 13 13 12 13 13 13 13 14 13 13 14 14
8 8 9 10 7 12 12 9 11 10 11 11 7 5 8 10 11 12 8 9 10 9 10 11 12 12 12 13 13 12 11 10 9 9 9 9 10 10 9 10 9 10 9
8 5 8 4 7 7 12 11 6 8 8 14 17 13 12 13 13 12 11 10 8 8 8 8 7 8 8 7 7 7 6 5 4 4 4 4 3 3 3 3 4 5 5
10 11 6 6 4 17 13 11 6 14 17 15 11 11 11 14 15 11 11 12 11 10 8 7 6 6 5 5 6 7 8 9 10 9 8 8 8 9 10 10 11 13 14
3 9 9 8 6 7 8 7 13 8 7 5 8 9 11 13 15 14 13 12 12 12 11 10 10 12 13 15 18 23 25 26 27 26 26 28 31 30 31 29 28 27 26
5 3 20 13 8 1 3 5 6 6 12 11 12 13 13 12 12 11 9 8 8 10 14 23 33 27 18 12 13 5 8 6 7 15 20 18 15 11 9 12 17 26 26
-6 20 22 7 15 -12 -15 4 4 9 13 12 11 11 10 9 7 6 8 10 20 20 14 12 16 21 23 27 25 24 21 18 14 10 8 10 17 12 6 11 26 10 25
42 -2 35 66 -0 -8 17 -11 14 7 11 9 7 7 7 10 15 9 13 24 15 16 20 15 3 7 8 7 9 12 14 16 24 16 14 14 18 12 22 13 12 25 24
2 9 -2 12 55 -12 -18 36 6 8 10 11 10 7 15 14 13 5 11 9 9 7 6 9 10 7 11 10 11 12 12 12 13 16 18 20 17 14 14 12 29 15 17
7 20 10 10 18 9 53 19 7 4 11 11 11 10 11 9 12 4 4 2 15 7 4 11 14 8 8 8 9 9 10 8 9 10 10 10 9 11 15 16 18 18 13
14 10 15 44 -5 47 7 9 5 8 7 14 13 7 13 7 12 9 14 15 8 3 9 10 10 12 13 12 10 9 8 8 7 6 7 7 7 9 11 12 14 14 16
15 15 -22 60 17 5 7 6 6 5 9 13 12 11 9 14 17 14 10 12 6 9 13 13 11 8 6 5 6 7 7 6 6 6 6 6 8 9 7 6 6 9 12
3 16 -7 15 35 -7 9 8 7 9 11 13 10 10 12 11 7 6 10 10 9 8 8 8 7 7 8 8 9 7 8 6 5 6 6 7 7 7 9 9 8 8 8
Height
5876 5878 5879 5883 5885 5887 5890 5892 5894 5898 5900 5903 5902 5904 5907 5913 5914 5916 5918 5919 5921 5923 5924 5925 5926 5927 5927 5929 5929 5928 5929 5931 5932 5933 5933 5935 5936 5935 5935 5935 5935 5934 5935
5873 5875 5876 5879 5882 5884 5886 5889 5891 5894 5896 5898 5901 5904 5906 5909 5912 5914 5916 5918 5918 5920 5921 5922 5923 5923 5924 5926 5927 5927 5927 5929 5929 5930 5931 5930 5931 5931 5930 5931 5931 5929 5930
5871 5872 5873 5875 5878 5880 5882 5885 5887 5889 5892 5894 5897 5900 5902 5905 5908 5911 5912 5914 5916 5917 5918 5919 5919 5921 5921 5922 5923 5924 5925 5925 5925 5925 5924 5924 5924 5926 5926 5926 5927 5926 5924
5867 5870 5871 5872 5875 5877 5880 5881 5884 5886 5888 5890 5893 5896 5899 5902 5903 5905 5907 5909 5911 5912 5913 5914 5915 5917 5917 5918 5918 5918 5919 5920 5920 5920 5919 5921 5921 5920 5919 5920 5920 5920 5920
5865 5866 5868 5869 5871 5873 5874 5877 5880 5882 5884 5886 5889 5891 5893 5897 5898 5900 5902 5903 5905 5907 5908 5910 5910 5912 5912 5913 5913 5914 5914 5915 5915 5914 5914 5915 5916 5914 5913 5914 5914 5914 5913
5862 5863 5864 5866 5866 5867 5868 5871 5874 5878 5880 5882 5884 5886 5889 5891 5893 5894 5896 5898 5899 5901 5902 5903 5904 5906 5906 5906 5907 5907 5908 5908 5908 5909 5909 5908 5910 5909 5906 5907 5906 5906 5906
5857 5859 5860 5862 5862 5863 5864 5868 5871 5873 5875 5877 5879 5882 5882 5884 5885 5888 5888 5890 5893 5894 5894 5896 5897 5898 5899 5899 5900 5901 5901 5902 5902 5902 5903 5901 5902 5902 5902 5899 5899 5898 5896
5854 5855 5857 5858 5859 5860 5862 5865 5867 5869 5871 5872 5874 5874 5876 5877 5878 5880 5880 5882 5885 5887 5887 5888 5890 5891 5891 5892 5894 5894 5895 5895 5895 5894 5893 5892 5892 5892 5893 5892 5891 5891 5888
5851 5852 5853 5855 5857 5858 5859 5861 5862 5864 5865 5867 5868 5868 5870 5870 5870 5872 5875 5876 5878 5879 5879 5881 5882 5883 5883 5884 5886 5887 5886 5887 5885 5885 5886 5886 5884 5882 5880 5880 5881 5878 5879
5848 5850 5851 5852 5853 5854 5856 5857 5858 5859 5860 5861 5862 5862 5863 5864 5865 5865 5867 5868 5869 5870 5870 5870 5872 5876 5876 5876 5876 5876 5879 5878 5878 5877 5876 5877 5875 5873 5870 5868 5867 5867 5866
5843 5845 5847 5849 5849 5850 5851 5853 5855 5856 5856 5858 5858 5858 5858 5859 5859 5858 5859 5859 5857 5857 5859 5861 5865 5866 5867 5866 5866 5867 5867 5868 5866 5866 5866 5865 5866 5865 5862 5858 5855 5854 5853
5837 5839 5841 5843 5845 5846 5847 5849 5850 5851 5852 5853 5853 5854 5854 5855 5854 5853 5852 5852 5850 5848 5850 5853 5857 5856 5856 5857 5857 5857 5856 5855 5854 5854 5854 5854 5852 5851 5850 5848 5845 5842 5838
5829 5831 5834 5836 5838 5840 5841 5842 5843 5844 5845 5846 5847 5848 5847 5847 5847 5847 5846 5846 5845 5845 5846 5846 5847 5847 5848 5847 5846 5845 5844 5843 5841 5841 5840 5841 5839 5838 5836 5834 5831 5829 5828
5820 5824 5827 5829 5830 5833 5834 5835 5836 5837 5837 5837 5839 5839 5839 5841 5840 5839 5840 5840 5839 5839 5839 5839 5838 5838 5838 5838 5837 5836 5835 5832 5831 5830 5830 5829 5827 5825 5823 5821 5820 5817 5816
5813 5816 5818 5821 5822 5824 5826 5827 5828 5829 5830 5830 5831 5831 5830 5832 5832 5832 5832 5832 5832 5832 5832 5831 5831 5830 5829 5829 5827 5826 5824 5823 5821 5820 5818 5816 5815 5813 5811 5808 5806 5804 5802
5804 5807 5810 5814 5815 5818 5819 5821 5821 5821 5821 5821 5822 5821 5821 5822 5822 5823 5824 5824 5824 5824 5824 5823 5822 5821 5820 5819 5817 5816 5814 5812 5810 5807 5805 5803 5801 5799 5796 5794 5792 5790 5788
5797 5802 5805 5806 5809 5811 5812 5813 5814 5815 5813 5813 5814 5814 5813 5814 5814 5814 5814 5815 5815 5816 5815 5814 5814 5812 5811 5810 5808 5805 5803 5800 5798 5795 5792 5789 5786 5783 5780 5778 5776 5774 5772
5784 5792 5797 5800 5801 5804 5805 5807 5807 5807 5807 5806 5805 5805 5806 5806 5806 5806 5806 5806 5807 5806 5806 5805 5804 5803 5800 5799 5796 5794 5791 5788 5785 5782 5778 5774 5771 5768 5765 5762 5759 5757 5755
5778 5782 5786 5789 5793 5795 5797 5799 5799 5800 5801 5799 5799 5799 5799 5799 5799 5800 5799 5798 5798 5797 5796 5795 5794 5792 5790 5788 5787 5784 5782 5779 5776 5772 5768 5765 5762 5758 5755 5752 5748 5744 5741
5771 5777 5779 5780 5782 5785 5789 5790 5792 5793 5793 5792 5792 5792 5792 5793 5792 5792 5792 5791 5789 5788 5788 5788 5787 5786 5784 5782 5778 5776 5773 5771 5768 5764 5761 5758 5755 5751 5747 5743 5739 5735 5731
5764 5771 5771 5770 5772 5778 5781 5783 5784 5786 5786 5785 5785 5785 5786 5787 5786 5785 5785 5784 5784 5784 5783 5783 5782 5780 5777 5775 5773 5770 5768 5764 5761 5758 5755 5752 5748 5744 5740 5736 5731 5727 5724
5761 5761 5759 5759 5762 5768 5770 5773 5776 5778 5778 5777 5778 5777 5778 5779 5780 5780 5780 5780 5779 5779 5779 5779 5777 5775 5773 5770 5768 5765 5762 5759 5756 5752 5749 5746 5742 5738 5735 5731 5725 5722 5718
5748 5749 5753 5753 5754 5757 5757 5761 5766 5770 5769 5768 5768 5769 5770 5771 5774 5773 5773 5775 5775 5773 5772 5772 5772 5770 5768 5765 5763 5760 5757 5754 5752 5749 5746 5741 5738 5735 5731 5728 5725 5720 5716
5739 5743 5745 5734 5736 5747 5752 5756 5759 5761 5760 5759 5761 5761 5763 5764 5766 5768 5767 5768 5769 5769 5768 5767 5765 5764 5763 5760 5757 5756 5753 5750 5748 5744 5741 5739 5736 5733 5730 5726 5721 5718 5715
5729 5732 5737 5738 5738 5743 5747 5749 5752 5752 5752 5753 5753 5755 5756 5758 5758 5760 5761 5762 5764 5764 5763 5762 5760 5757 5757 5756 5753 5751 5749 5746 5744 5741 5739 5735 5733 5730 5727 5724 5721 5718 5715
5722 5726 5729 5732 5734 5738 5741 5743 5745 5744 5745 5746 5747 5749 5750 5752 5753 5753 5754 5756 5757 5756 5756 5755 5753 5752 5750 5749 5747 5744 5743 5741 5738 5736 5733 5731 5729 5726 5723 5720 5718 5715 5712